Temperature
18 17 17 16 16 15 14 14 13 13 13 13 13 13 13 12 12 12 12 12 12 13 13 13 13 13 13 13 14 14 14 14 14 15 15 15 16 16 16 17 17 17 17
18 17 17 16 16 15 14 14 13 13 13 13 13 12 12 12 12 12 12 12 12 12 12 13 13 13 13 13 13 13 13 14 14 14 14 15 15 16 16 17 17 17 17
18 17 17 16 16 15 14 14 13 13 13 12 12 12 12 12 12 12 12 12 12 12 12 12 12 13 13 13 13 13 13 13 13 14 14 14 15 15 16 16 16 17 17
18 17 17 16 16 15 14 14 13 13 13 12 12 12 12 12 12 12 12 12 12 12 12 12 12 12 12 13 13 13 13 13 13 13 13 14 14 14 15 16 16 16 16
18 18 17 16 16 15 14 14 13 13 13 12 12 12 12 12 12 12 12 12 12 12 12 12 12 12 12 12 12 13 13 13 13 13 13 13 14 14 14 14 15 16 16
18 17 17 16 15 15 14 14 13 13 13 12 12 12 12 12 12 12 12 12 12 12 12 12 12 12 12 12 12 12 12 13 13 13 13 13 13 14 14 14 14 15 15
18 17 17 16 16 15 14 14 13 13 13 13 12 12 12 12 11 11 12 12 12 12 12 12 12 12 12 12 12 12 12 12 13 13 13 13 13 13 13 13 14 14 15
18 18 17 16 16 15 14 14 13 13 13 13 12 12 12 12 12 11 11 11 11 11 11 12 12 12 12 12 12 12 12 12 13 13 13 13 13 13 13 13 13 13 14
18 18 17 16 16 15 15 14 14 13 13 13 12 12 12 12 12 11 11 11 11 11 12 12 12 12 12 12 12 12 12 12 12 13 13 13 13 13 13 13 13 13 13
18 18 17 17 16 15 15 14 14 13 13 13 13 12 12 12 12 12 12 11 11 12 12 12 12 12 12 12 12 12 12 12 12 12 13 13 13 13 13 13 13 13 13
19 18 17 17 16 15 15 14 14 14 13 13 13 12 12 12 12 12 12 11 11 12 12 12 12 12 12 12 12 12 12 12 12 12 12 12 12 13 13 13 13 13 13
19 18 18 17 16 16 15 15 14 14 13 13 13 13 12 12 12 12 12 12 12 12 12 12 12 12 12 12 12 12 12 12 12 12 12 12 12 12 12 13 13 13 13
19 18 18 17 16 16 15 15 14 14 14 13 13 13 13 12 12 12 12 12 12 12 12 12 12 12 12 12 12 12 12 12 12 12 12 12 12 12 12 12 12 12 12
19 18 18 17 17 16 16 15 15 14 14 13 13 13 13 12 12 12 12 12 12 12 12 12 12 12 12 12 12 12 12 12 12 12 12 12 12 12 12 12 12 12 12
19 19 18 18 17 16 16 16 15 15 14 14 13 13 13 13 12 12 12 12 12 12 12 12 12 12 12 12 12 12 12 12 12 12 11 11 11 11 12 12 12 12 12
19 19 18 18 17 17 16 16 15 15 15 14 14 13 13 13 13 13 12 12 12 12 12 12 12 12 12 12 12 12 12 12 12 12 11 11 11 11 11 12 12 12 12
20 19 19 18 18 17 17 16 16 15 15 14 14 14 14 13 13 13 13 13 13 13 12 12 12 12 12 12 12 12 12 12 11 11 11 12 11 11 12 12 12 12 11
20 20 19 18 18 17 17 16 16 16 15 15 14 14 14 14 13 13 13 13 13 13 13 13 13 12 12 12 12 12 12 12 11 11 11 11 11 11 11 11 11 11 11
20 20 19 18 18 17 17 17 16 16 15 15 15 14 14 14 14 14 13 13 13 13 13 13 13 13 13 12 12 12 12 12 12 11 11 11 11 11 11 11 11 11 11
20 20 19 18 18 17 17 17 16 16 16 15 15 15 14 14 14 14 14 13 13 13 13 13 13 13 13 12 12 12 12 12 12 11 11 11 11 11 11 11 11 11 11
20 19 19 18 18 17 17 17 16 16 16 15 15 15 15 14 14 14 14 14 13 13 13 13 13 13 13 13 12 12 12 12 12 12 11 11 11 11 11 11 11 11 11
20 19 19 18 18 17 17 17 16 16 16 15 15 15 15 14 14 14 14 14 14 13 13 13 13 13 13 13 13 12 12 12 12 12 12 11 11 11 11 11 11 11 11
19 19 18 18 18 17 17 17 16 16 16 15 15 15 15 14 14 14 14 14 13 13 13 13 13 13 13 13 13 12 12 12 12 12 12 11 11 11 11 11 11 11 11
19 19 18 18 18 17 17 17 16 16 16 15 15 15 14 14 14 14 13 13 13 13 13 13 13 13 13 13 13 12 12 12 12 12 11 11 11 11 11 11 11 11 11
19 18 18 18 17 17 17 16 16 16 15 15 15 14 14 14 13 13 13 13 13 12 12 12 12 12 13 12 12 12 12 12 12 12 11 11 11 11 11 11 11 11 10
19 18 18 17 17 17 16 16 16 15 15 15 14 14 14 13 13 12 12 12 12 12 12 12 12 12 12 12 12 12 12 12 12 11 11 11 11 11 10 11 11 10 10
Wind_Speed
5 4 4 3 2 1 1 1 2 3 2 2 2 3 3 4 4 3 4 5 5 4 2 2 2 2 1 1 1 0 1 1 1 0 1 2 2 3 3 3 3 4 4
4 4 4 3 3 2 2 3 3 3 2 2 2 2 3 3 3 4 4 5 5 4 3 2 2 1 1 1 1 0 1 1 1 1 1 1 2 2 3 2 3 3 2
9 7 6 5 3 4 4 3 4 3 3 3 2 2 3 3 3 4 4 4 5 4 3 2 1 1 0 1 1 1 1 1 1 1 2 2 2 1 1 2 2 2 2
7 7 6 6 6 6 4 4 4 3 3 2 2 2 2 2 3 3 4 5 5 4 4 3 2 2 1 1 2 1 1 1 1 1 1 2 2 1 1 2 1 2 3
8 8 8 7 6 5 4 3 3 3 3 2 2 2 2 2 3 3 5 5 5 4 4 3 2 2 1 2 2 1 1 1 2 1 1 0 0 1 1 1 2 1 2
8 7 6 5 4 3 3 3 3 4 3 2 2 2 3 3 4 4 5 5 4 4 5 3 3 2 2 2 2 2 1 2 2 2 2 2 1 2 2 2 2 2 2
8 7 7 6 6 5 4 3 3 4 4 3 3 3 3 2 3 4 4 4 4 4 5 5 3 3 2 2 2 1 1 1 2 2 2 3 3 2 2 2 1 2 2
8 8 8 7 6 6 5 4 4 4 4 3 3 3 3 2 2 3 3 3 3 4 5 5 4 3 2 2 1 1 1 1 2 2 2 2 3 2 3 3 2 1 2
8 8 8 7 7 6 6 6 5 5 4 3 3 3 3 2 3 3 3 3 4 4 5 5 5 4 3 2 2 1 1 1 1 2 2 1 2 2 3 3 3 3 2
7 8 7 7 7 6 5 4 4 5 4 3 2 2 2 3 3 3 4 4 5 4 5 5 5 5 4 3 2 2 2 2 2 1 1 1 1 1 2 2 3 3 3
8 8 8 7 6 5 4 4 4 4 3 3 2 2 3 3 3 3 4 4 4 4 5 5 5 5 4 3 3 2 2 2 2 2 1 1 1 1 1 1 2 2 3
7 7 7 5 5 5 5 5 5 4 4 3 2 2 2 2 3 3 4 4 4 4 4 5 5 5 4 4 3 3 3 3 3 3 2 2 1 1 1 1 2 2 3
7 6 5 6 6 6 6 6 5 5 4 3 2 2 2 2 3 3 4 4 4 5 5 5 5 5 4 4 3 3 3 3 3 3 2 3 2 2 1 1 2 2 2
7 7 7 7 7 6 6 6 6 5 4 3 3 3 3 3 3 3 3 4 3 4 5 4 4 4 4 4 3 3 3 3 3 3 2 2 2 2 2 2 2 2 2
7 9 8 8 7 6 6 6 6 5 4 4 4 5 4 3 3 3 3 3 3 4 4 4 5 5 4 3 3 3 3 3 4 4 3 3 3 4 3 2 2 2 2
10 10 9 8 8 8 7 6 6 6 5 5 5 4 3 3 3 3 3 4 4 4 4 4 4 5 4 6 6 4 3 3 3 4 5 5 5 5 5 5 4 3 3
10 10 10 10 9 9 8 8 7 5 5 6 5 4 3 4 4 3 3 4 4 3 4 4 4 5 6 7 6 5 2 2 3 3 4 4 5 6 4 5 5 4 4
10 10 9 9 8 7 6 6 5 5 5 5 5 5 4 4 4 3 4 4 3 3 4 4 4 4 6 7 6 4 3 2 3 3 3 3 5 5 4 4 4 4 4
9 9 9 7 7 7 7 6 5 5 5 5 6 5 5 5 4 4 5 4 3 4 4 4 4 4 6 7 6 3 1 2 3 3 3 3 4 7 6 4 4 5 5
7 7 7 6 6 6 7 7 6 5 6 7 6 5 5 5 5 6 5 3 3 4 4 4 4 4 5 7 6 3 0 2 3 4 4 5 5 7 6 3 3 5 5
7 7 8 7 6 7 8 7 6 7 7 5 4 4 4 5 5 4 3 3 3 3 4 4 5 4 5 7 7 4 1 2 2 3 3 4 7 7 7 5 3 5 6
7 8 8 6 5 7 9 7 6 6 4 3 3 3 3 3 3 3 3 3 2 3 4 4 5 4 4 4 5 4 3 3 2 3 3 4 7 8 8 6 6 7 5
8 7 8 7 5 6 8 8 6 4 4 3 2 2 2 2 1 2 2 2 1 2 3 3 4 5 4 4 5 4 3 2 2 2 3 5 6 7 6 7 9 7 3
8 8 9 8 6 5 6 6 4 4 5 4 2 1 0 1 1 1 0 0 1 2 2 3 4 4 4 4 3 2 2 2 1 1 3 5 6 5 5 6 5 4 3
7 8 9 9 7 6 5 4 4 5 5 4 2 1 1 1 1 2 2 2 2 1 1 2 2 2 4 5 3 0 0 0 0 2 3 4 4 6 5 5 5 4 4
8 8 9 8 7 7 5 3 4 6 6 4 3 2 2 2 2 3 4 7 6 11 10 8 4 2 3 5 6 6 5 5 5 5 4 4 5 5 5 6 6 5 5
Wind_Direction
218 191 184 176 161 194 266 285 305 317 336 344 342 337 329 325 331 332 341 343 344 345 333 320 324 330 313 295 288 242 243 260 206 160 284 274 251 246 245 235 224 219 211
197 194 192 189 201 228 250 268 279 296 311 304 289 273 285 297 297 311 333 345 346 344 338 327 316 316 311 333 325 216 190 233 181 158 150 292 313 276 252 233 225 226 210
201 202 202 211 222 237 241 250 261 281 302 316 334 345 348 337 340 339 336 331 339 342 335 328 321 322 326 282 280 242 191 223 238 188 161 168 225 279 303 259 241 220 219
200 202 206 216 226 235 240 249 259 280 303 327 349 354 349 325 305 308 310 320 334 340 341 334 334 335 330 302 284 237 217 188 217 253 230 202 171 175 320 331 306 244 228
201 206 210 218 227 231 233 247 267 284 306 329 328 337 325 296 303 315 329 336 336 338 340 333 334 331 315 295 291 296 239 198 200 200 203 212 193 176 181 282 313 303 248
204 213 219 221 233 236 239 246 262 281 302 322 325 320 310 318 333 339 343 340 335 336 345 342 340 327 313 299 291 281 248 215 211 213 197 182 187 191 185 221 260 276 275
196 205 211 218 228 234 236 239 251 275 297 309 309 304 302 310 317 321 330 336 336 334 334 340 337 327 316 305 302 303 291 240 217 223 222 207 210 193 184 197 224 260 287
199 207 213 216 224 234 235 233 243 263 286 293 297 305 310 308 304 312 317 322 318 313 322 335 338 333 334 338 335 327 301 273 251 245 234 217 220 204 201 192 183 229 278
208 215 220 221 224 231 231 226 231 253 273 280 293 309 317 318 317 325 334 331 327 330 345 349 351 352 352 354 5 355 326 326 299 272 253 228 226 213 219 211 199 193 221
215 219 221 222 225 227 231 224 221 237 256 270 281 299 309 313 320 338 345 341 338 346 353 356 356 359 4 8 17 1 352 5 339 311 292 261 253 245 224 215 219 214 209
214 216 218 220 223 226 221 220 223 234 252 262 277 304 314 323 339 344 335 335 339 348 353 351 354 360 4 6 14 5 9 10 354 352 351 310 273 257 249 218 212 221 215
213 212 213 211 216 223 223 222 223 228 239 243 259 286 307 333 343 332 329 337 343 347 349 350 357 359 2 5 9 3 4 3 354 349 352 339 345 337 278 231 225 228 223
211 206 205 211 219 224 225 225 225 228 234 224 239 279 300 313 314 314 324 336 341 345 350 356 356 353 353 356 0 5 4 357 342 338 343 333 341 333 321 286 252 246 241
207 203 210 219 223 225 224 226 231 225 219 209 223 252 268 274 287 304 319 326 331 337 338 341 340 341 343 344 349 1 3 356 349 341 329 317 303 290 292 290 270 254 249
212 211 213 218 220 225 228 224 227 220 206 203 224 245 260 270 286 299 308 316 324 327 327 336 339 339 335 332 344 347 357 359 356 350 339 322 317 308 292 277 261 248 245
218 216 213 212 214 218 220 218 222 216 197 208 228 242 253 263 273 284 299 312 317 320 329 331 331 333 332 340 347 352 358 357 355 346 341 340 348 348 339 322 308 279 254
214 211 209 209 211 211 208 211 215 198 193 213 230 237 242 254 263 276 294 297 300 310 316 317 321 317 316 331 341 355 8 357 347 340 341 347 348 351 342 339 344 340 315
209 210 207 206 208 203 198 195 183 184 197 214 230 234 231 246 260 270 275 278 283 289 295 301 306 306 313 328 334 348 11 359 343 336 330 332 333 336 345 350 349 340 328
201 201 196 192 188 189 182 166 172 179 195 218 231 232 223 236 251 259 264 265 270 281 282 286 300 304 309 325 329 337 355 341 329 328 330 329 330 339 356 2 348 338 327
184 180 171 165 173 181 160 160 176 184 211 225 231 229 217 224 240 250 257 255 252 269 284 289 287 285 295 312 321 328 264 313 316 325 329 333 335 339 351 351 337 330 320
172 160 155 164 176 161 152 163 177 207 223 223 224 228 224 229 239 250 252 256 265 282 291 294 295 287 285 301 310 303 205 235 285 306 315 319 336 342 345 344 315 300 306
157 154 154 163 157 153 156 168 197 221 210 192 206 233 244 248 250 250 267 264 263 286 297 305 309 300 292 288 297 299 265 222 227 274 290 303 329 340 342 340 328 326 328
162 158 155 150 144 158 164 177 208 201 172 167 199 238 267 279 283 261 276 288 271 273 293 301 304 309 313 309 306 304 305 284 220 258 296 323 344 349 347 344 344 344 339
166 156 150 152 159 164 169 186 187 164 155 167 195 211 242 328 352 359 357 0 319 300 299 304 303 308 315 316 317 316 330 347 345 338 356 6 9 7 350 348 350 349 326
165 160 161 161 164 158 162 171 165 152 150 156 155 131 112 101 65 62 64 67 45 65 4 313 304 320 323 324 321 3 51 127 66 69 42 28 15 10 3 355 348 346 349
161 158 158 157 157 152 151 153 152 149 146 141 136 124 113 102 100 93 68 54 63 54 52 49 50 23 11 10 36 56 59 60 80 81 53 32 20 8 359 353 350 349 350
Height
1519 1520 1521 1521 1521 1520 1519 1518 1516 1513 1511 1509 1507 1504 1503 1501 1499 1497 1496 1494 1493 1492 1491 1490 1490 1490 1490 1490 1491 1491 1492 1492 1493 1494 1495 1497 1498 1499 1501 1504 1506 1508 1511
1517 1518 1519 1520 1520 1519 1518 1517 1515 1513 1510 1508 1506 1504 1502 1500 1498 1496 1494 1493 1492 1491 1490 1489 1488 1488 1488 1488 1488 1489 1489 1489 1491 1492 1493 1494 1496 1496 1498 1500 1502 1504 1507
1515 1516 1517 1518 1519 1518 1517 1516 1514 1512 1510 1508 1505 1503 1501 1499 1497 1495 1493 1492 1490 1489 1488 1488 1487 1487 1486 1486 1486 1487 1487 1487 1488 1490 1491 1492 1492 1493 1495 1496 1499 1501 1503
1513 1515 1516 1517 1517 1517 1516 1515 1513 1511 1509 1507 1505 1503 1501 1498 1497 1495 1493 1491 1490 1488 1487 1487 1486 1485 1485 1485 1485 1485 1485 1486 1486 1488 1489 1491 1491 1492 1492 1494 1495 1497 1499
1511 1513 1514 1515 1516 1516 1515 1514 1512 1511 1509 1507 1505 1503 1501 1499 1497 1494 1492 1491 1489 1488 1487 1486 1485 1484 1484 1483 1483 1483 1483 1484 1485 1485 1486 1488 1489 1490 1491 1491 1493 1494 1496
1509 1511 1513 1514 1514 1514 1514 1513 1512 1510 1508 1506 1504 1503 1501 1499 1496 1494 1492 1491 1489 1488 1486 1485 1484 1483 1483 1482 1482 1482 1482 1482 1483 1484 1484 1485 1487 1487 1489 1490 1491 1492 1493
1507 1509 1511 1512 1512 1513 1512 1512 1511 1509 1508 1506 1504 1502 1501 1499 1496 1494 1492 1491 1489 1487 1486 1485 1484 1483 1482 1481 1481 1481 1480 1480 1481 1482 1482 1483 1484 1485 1487 1488 1488 1489 1490
1505 1507 1509 1510 1511 1511 1511 1511 1510 1509 1507 1506 1504 1502 1501 1499 1497 1495 1493 1491 1489 1487 1486 1484 1483 1482 1481 1480 1480 1479 1479 1479 1479 1480 1481 1481 1482 1483 1484 1486 1486 1487 1487
1503 1505 1507 1508 1509 1510 1510 1510 1509 1508 1507 1505 1504 1502 1501 1499 1497 1495 1493 1491 1489 1487 1485 1484 1482 1481 1480 1479 1479 1478 1478 1478 1478 1478 1479 1479 1480 1481 1482 1483 1484 1485 1485
1501 1503 1505 1506 1507 1508 1509 1508 1508 1507 1506 1505 1504 1502 1501 1499 1497 1495 1493 1491 1489 1487 1485 1484 1482 1481 1480 1479 1478 1478 1477 1477 1477 1477 1477 1477 1478 1479 1479 1480 1481 1482 1482
1498 1500 1502 1504 1506 1507 1507 1507 1507 1506 1505 1504 1503 1502 1501 1499 1498 1496 1494 1492 1490 1488 1486 1484 1482 1481 1480 1479 1478 1477 1477 1477 1476 1476 1476 1476 1476 1476 1477 1477 1478 1478 1479
1496 1498 1500 1502 1503 1504 1505 1505 1505 1505 1504 1504 1503 1502 1501 1499 1498 1496 1494 1493 1491 1489 1487 1485 1483 1482 1480 1479 1478 1477 1477 1476 1475 1475 1474 1474 1474 1474 1474 1474 1475 1475 1476
1494 1496 1498 1499 1501 1502 1503 1504 1504 1504 1503 1503 1502 1501 1500 1499 1498 1496 1495 1493 1491 1490 1488 1486 1484 1483 1481 1480 1479 1478 1477 1476 1475 1474 1474 1473 1473 1472 1472 1472 1472 1472 1473
1491 1493 1495 1497 1499 1500 1501 1502 1502 1502 1502 1502 1501 1501 1500 1499 1497 1496 1495 1493 1492 1490 1489 1487 1485 1484 1482 1481 1480 1478 1477 1476 1475 1474 1473 1473 1472 1471 1471 1470 1470 1470 1470
1488 1490 1492 1494 1496 1497 1499 1500 1500 1501 1501 1501 1500 1500 1499 1498 1497 1496 1495 1493 1492 1491 1489 1488 1486 1485 1483 1482 1480 1479 1477 1476 1475 1474 1473 1472 1471 1470 1469 1469 1468 1468 1468
1485 1487 1489 1491 1493 1495 1496 1498 1498 1499 1499 1499 1499 1499 1498 1498 1497 1496 1495 1493 1492 1491 1489 1488 1486 1485 1484 1482 1481 1479 1478 1477 1475 1474 1473 1472 1471 1470 1469 1468 1467 1466 1466
1481 1484 1486 1488 1490 1492 1494 1495 1497 1497 1498 1498 1498 1498 1497 1497 1496 1495 1494 1493 1492 1491 1489 1488 1487 1485 1484 1483 1481 1480 1478 1477 1475 1474 1473 1472 1470 1469 1468 1467 1466 1465 1464
1478 1481 1483 1485 1488 1490 1492 1493 1495 1495 1496 1496 1496 1496 1496 1496 1495 1495 1494 1493 1492 1491 1489 1488 1487 1485 1484 1483 1481 1480 1478 1477 1476 1474 1473 1471 1470 1469 1467 1466 1465 1464 1463
1475 1478 1480 1483 1485 1487 1489 1491 1492 1493 1494 1494 1495 1495 1495 1494 1494 1494 1493 1492 1491 1490 1489 1488 1486 1485 1484 1482 1481 1480 1478 1477 1475 1474 1473 1471 1470 1468 1467 1465 1464 1463 1462
1473 1475 1478 1480 1483 1485 1487 1489 1490 1491 1492 1492 1493 1493 1493 1493 1492 1492 1491 1491 1490 1489 1488 1487 1485 1484 1483 1482 1480 1479 1478 1476 1475 1474 1472 1471 1469 1468 1466 1464 1463 1461 1460
1470 1473 1475 1478 1480 1482 1484 1486 1488 1489 1490 1490 1491 1491 1491 1491 1490 1490 1489 1489 1488 1487 1486 1485 1484 1483 1482 1480 1479 1478 1476 1475 1474 1473 1471 1470 1468 1467 1465 1464 1462 1460 1459
1468 1470 1473 1475 1478 1480 1482 1484 1485 1487 1488 1488 1489 1489 1489 1488 1488 1488 1487 1486 1485 1484 1484 1483 1482 1481 1480 1479 1477 1476 1475 1474 1472 1471 1470 1469 1467 1466 1464 1463 1461 1460 1458
1465 1468 1470 1473 1475 1477 1479 1481 1483 1484 1485 1486 1486 1486 1486 1486 1485 1485 1484 1483 1482 1482 1481 1480 1479 1478 1477 1476 1475 1474 1473 1472 1470 1469 1468 1467 1465 1464 1463 1461 1460 1458 1457
1462 1465 1467 1470 1472 1475 1477 1479 1480 1481 1482 1483 1483 1483 1483 1483 1482 1482 1481 1480 1479 1478 1478 1477 1476 1475 1474 1473 1472 1471 1470 1469 1468 1467 1466 1465 1463 1462 1461 1459 1458 1457 1455
1459 1462 1464 1467 1469 1472 1474 1476 1477 1478 1479 1480 1480 1480 1480 1480 1480 1479 1478 1477 1476 1475 1475 1474 1473 1472 1471 1470 1469 1468 1468 1467 1466 1465 1464 1463 1462 1460 1459 1458 1456 1455 1453
1456 1458 1461 1464 1466 1469 1471 1473 1474 1475 1476 1476 1477 1477 1477 1477 1477 1476 1476 1474 1474 1473 1472 1471 1470 1469 1468 1467 1466 1466 1465 1464 1463 1462 1461 1460 1459 1458 1456 1455 1454 1453 1451